Location: Lake Almanor
(40.2485°N, 121.1442°W)
Time: 19:54:55
(UTC-08:00)

STARLINK-1114 - Pass Details

Date: 01 February 2020
Orbit: 546 x 548 km, 53.0° (Epoch: 21 February)

Event Time Altitude Azimuth Distance (km) Brightness Sun altitude
Rises 17:54:20 0° 311° (NW) 2,692 7.6 -6.5°
Reaches altitude 10° 17:56:36 10° 316° (NW) 1,793 6.6 -6.9°
Maximum altitude 18:00:36 55° 35° (NE) 641 3.7 -7.6°
Drops below altitude 10° 18:04:33 10° 114° (ESE) 1,768 5.7 -8.4°
Enters shadow 18:05:54 - 118° (ESE) 2,298 6.3 -8.6°
